Weather History for Ashland, WI

Change the Weather History Date:

Tuesday, September 4, 2012

  Actual Average Record
Temperature  
Mean Temperature 70 °F -  
Max Temperature 91 °F 75 °F 92 °F (1948)
Min Temperature 51 °F 51 °F 35 °F (1961)
Cooling Degree Days 6    
Growing Degree Days 20 (Base 50)    
Moisture  
Dew Point 57 °F    
Average Humidity 73    
Maximum Humidity 100    
Minimum Humidity 32    
Precipitation  
Precipitation 0.00 in - - ()
Sea Level Pressure  
Sea Level Pressure 29.81 in    
Wind  
Wind Speed 3 mph (SW)    
Max Wind Speed 15 mph    
Max Gust Speed 22 mph    
Visibility 8 miles    
Events      
Averages and records for this station are not official NWS values.
T = Trace of Precipitation, MM = Missing Value Source: NWS Daily Summary

Daily Weather History Graph

Daily Weather History Graph

Search for Another Location

Airport:

Trip Planner

Search our weather history database for the weather conditions in past years. The results will help you decide how hot, cold, wet, or windy it might be!

Date:

Astronomy

Sep. 04, 2012 Rise Set
Actual Time 6:28 AM CDT 7:35 PM CDT
Civil Twilight 5:57 AM CDT 8:06 PM CDT
Nautical Twilight 5:19 AM CDT 8:43 PM CDT
Astronomical Twilight 4:40 AM CDT 9:23 PM CDT
Moon 9:08 PM CDT (9/4) 10:54 AM CDT (9/4)
Length of Visible Light 14h 09m
Length of Day
13h 07m
Waning Gibbous, 83% of the Moon is Illuminated
Sep 4
Waning Gibbous
Sep 8
Last Quarter
Sep 15
New
Sep 22
First Quarter
Sep 29
Full

Hourly Weather History & Observations

Time (CDT) Temp. Heat Index Dew Point Humidity Pressure Visibility Wind Dir Wind Speed Gust Speed Precip Events Conditions
12:53 AM 55.0 °F - 53.1 °F 93% 29.89 in 10.0 mi Calm Calm - N/A   Clear
1:53 AM 55.9 °F - 53.1 °F 90% 29.90 in 10.0 mi SW 6.9 mph - N/A   Clear
2:53 AM 57.9 °F - 51.1 °F 78% 29.88 in 10.0 mi South 5.8 mph - N/A   Clear
3:53 AM 54.0 °F - 50.0 °F 86% 29.88 in 10.0 mi Calm Calm - N/A   Clear
4:53 AM 53.1 °F - 50.0 °F 89% 29.89 in 10.0 mi WSW 4.6 mph - N/A   Clear
5:53 AM 51.1 °F - 48.9 °F 92% 29.89 in 10.0 mi Calm Calm - N/A   Clear
6:53 AM 51.1 °F - 48.9 °F 92% 29.90 in 10.0 mi South 4.6 mph - N/A   Clear
7:53 AM 59.0 °F - 54.0 °F 83% 29.89 in 10.0 mi Calm Calm - N/A   Clear
8:53 AM 68.0 °F - 55.9 °F 65% 29.89 in 10.0 mi Calm Calm - N/A   Clear
9:53 AM 75.0 °F - 54.0 °F 48% 29.88 in 10.0 mi Calm Calm - N/A   Clear
10:53 AM 80.1 °F 80.0 °F 54.0 °F 40% 29.86 in 10.0 mi Calm Calm - N/A   Clear
11:53 AM 84.9 °F 83.2 °F 53.1 °F 33% 29.84 in 10.0 mi Calm Calm - N/A   Clear
12:53 PM 89.1 °F 87.3 °F 55.9 °F 32% 29.80 in 10.0 mi South 3.5 mph - N/A   Clear
1:53 PM 90.0 °F 89.1 °F 59.0 °F 35% 29.78 in 10.0 mi SSW 6.9 mph 16.1 mph N/A   Clear
2:53 PM 90.0 °F 89.1 °F 59.0 °F 35% 29.75 in 10.0 mi Variable 4.6 mph 17.3 mph N/A   Partly Cloudy
3:53 PM 90.0 °F 90.0 °F 61.0 °F 38% 29.74 in 10.0 mi SSW 12.7 mph 21.9 mph N/A   Clear
4:53 PM 88.0 °F 87.9 °F 61.0 °F 40% 29.71 in 10.0 mi SSW 15.0 mph 21.9 mph N/A   Clear
5:53 PM 80.1 °F 81.9 °F 64.9 °F 60% 29.71 in 10.0 mi North 6.9 mph - N/A   Scattered Clouds
6:53 PM 73.9 °F - 66.0 °F 76% 29.73 in 10.0 mi NNW 8.1 mph 16.1 mph N/A   Clear
7:53 PM 69.1 °F - 63.0 °F 81% 29.75 in 10.0 mi West 3.5 mph - N/A   Clear
8:53 PM 66.0 °F - 62.1 °F 87% 29.77 in 10.0 mi Calm Calm - N/A   Clear
9:53 PM 63.0 °F - 61.0 °F 93% 29.78 in 10.0 mi Calm Calm - N/A   Clear
10:53 PM 61.0 °F - 60.1 °F 97% 29.77 in 6.0 mi SSW 3.5 mph - N/A   Clear
11:16 PM 60.8 °F - 60.8 °F 100% 29.78 in 1.8 mi Calm Calm - N/A   Clear
11:32 PM 60.8 °F - 60.8 °F 100% 29.79 in 1.2 mi Calm Calm - N/A   Clear
11:40 PM 60.8 °F - 59.0 °F 94% 29.79 in 4.0 mi Calm Calm - N/A   Clear
11:53 PM 60.1 °F - 59.0 °F 96% 29.76 in 4.0 mi Calm Calm - N/A   Clear
11:59 PM 60.8 °F - 59.0 °F 94% 29.77 in 1.5 mi Calm Calm - N/A   Clear